Bangkok (Suvarnabhumi), Thailand

11:23 PM +07 on December 06, 2019 (GMT +0700)
Bangkok (Suvarnabhumi)

Weather History for VTBS - October, 2019

Change the Weather History Date:

Saturday, October 26, 2019

  Actual Average (WUND) Record (WUND)
Temperature  
Mean Temperature 86 °F -  
Max Temperature 96 °F 89 °F - (-1)
Min Temperature 75 °F 72 °F - (-1)
Cooling Degree Days 20    
Growing Degree Days 36 (Base 50)    
Moisture  
Dew Point 76 °F    
Average Humidity 70    
Maximum Humidity 94    
Minimum Humidity 44    
Precipitation  
Precipitation 0.01 in 0.11 in - ()
Sea Level Pressure  
Sea Level Pressure 29.82 in    
Wind  
Wind Speed 4 mph ()    
Max Wind Speed 10 mph    
Max Gust Speed -    
Visibility 5.4 miles    
Events      
Averages and records for this station are not official NWS values.
T = Trace of Precipitation, MM = Missing Value Source: Averaged Metar Reports

Daily Weather History Graph

Daily Weather History Graph

Search for Another Location

Airport or City:

Astronomy

Oct. 26, 2019 Rise Set
Actual Time 6:08 AM +07 5:51 PM +07
Civil Twilight 5:46 AM +07 6:13 PM +07
Nautical Twilight 5:21 AM +07 6:38 PM +07
Astronomical Twilight 4:56 AM +07 7:03 PM +07
Moon 4:05 AM +07 (10/26) 4:36 PM +07 (10/26)
Length of Visible Light 12h 26m
Length of Day
11h 43m
Waning Crescent, 5% of the Moon is Illuminated
Oct 26
Waning Crescent
Oct 28
New
Nov 4
First Quarter
Nov 12
Full
Nov 20
Last Quarter

Hourly Weather History & Observations

Time (+07) Temp. Heat Index Dew Point Humidity Pressure Visibility Wind Dir Wind Speed Gust Speed Precip Events Conditions
12:00 AM 82.4 °F 92.4 °F 78.8 °F 89% 29.86 in 6.2 mi SW 3.5 mph - N/A   Partly Cloudy
12:30 AM 82.4 °F 92.4 °F 78.8 °F 89% 29.86 in 6.2 mi Variable 2.3 mph - N/A   Partly Cloudy
1:00 AM 82 °F - 80 °F 93% 29.83 in 4 mi Calm Calm - -   Mist
1:00 AM 82.4 °F 92.4 °F 78.8 °F 89% 29.83 in 6.2 mi Variable 1.2 mph - N/A   Partly Cloudy
1:30 AM 82.4 °F 92.4 °F 78.8 °F 89% 29.83 in 6.2 mi Calm Calm - N/A   Partly Cloudy
2:00 AM 84.2 °F 96.1 °F 78.8 °F 84% 29.83 in 5.6 mi East 3.5 mph - N/A   Partly Cloudy
2:30 AM 84.2 °F 96.1 °F 78.8 °F 84% 29.83 in 5.6 mi NE 5.8 mph - N/A   Partly Cloudy
3:00 AM 82.4 °F 92.4 °F 78.8 °F 89% 29.83 in 5.6 mi NNE 3.5 mph - N/A   Partly Cloudy
3:30 AM 82.4 °F 92.4 °F 78.8 °F 89% 29.83 in 5.6 mi North 3.5 mph - N/A   Partly Cloudy
4:00 AM 80 °F - 78 °F 93% 29.79 in 2 mi Calm Calm - -   Mist
4:00 AM 82.4 °F 92.4 °F 78.8 °F 89% 29.83 in 5.0 mi North 3.5 mph - N/A   Scattered Clouds
4:30 AM 84.2 °F 94.1 °F 77.0 °F 79% 29.83 in 5.0 mi NE 5.8 mph - N/A   Scattered Clouds
5:00 AM 82.4 °F 90.9 °F 77.0 °F 84% 29.83 in 5.0 mi NNE 4.6 mph - N/A   Partly Cloudy
5:30 AM 82.4 °F 90.9 °F 77.0 °F 84% 29.83 in 5.0 mi NNE 3.5 mph - N/A   Partly Cloudy
6:00 AM 80.6 °F 87.1 °F 77.0 °F 89% 29.83 in 4.3 mi NW 3.5 mph - N/A   Partly Cloudy
6:30 AM 80.6 °F 88.1 °F 78.8 °F 94% 29.83 in 3.7 mi Variable 2.3 mph - N/A   Partly Cloudy
7:00 AM 81 °F - 79 °F 92% 29.86 in 2 mi Calm Calm - -   Mist
7:30 AM 84.2 °F 96.1 °F 78.8 °F 84% 29.86 in 5.0 mi NNE 8.1 mph - N/A   Partly Cloudy
8:00 AM 86.0 °F 96.9 °F 77.0 °F 74% 29.89 in 5.6 mi NNE 5.8 mph - N/A   Partly Cloudy
9:00 AM 87.8 °F 97.6 °F 75.2 °F 66% 29.89 in 6.2 mi NE 9.2 mph - N/A   Partly Cloudy
9:30 AM 89.6 °F 99.8 °F 75.2 °F 62% 29.89 in 6.2 mi ENE 10.4 mph - N/A   Partly Cloudy
10:00 AM 91 °F - 82 °F 68% 29.89 in 2 mi Calm Calm - -   Mist
10:00 AM 89.6 °F 98.2 °F 73.4 °F 59% 29.89 in 6.2 mi NE 9.2 mph - N/A   Partly Cloudy
10:30 AM 91.4 °F 102.5 °F 75.2 °F 59% 29.89 in 6.2 mi ENE 9.2 mph - N/A   Partly Cloudy
11:00 AM 91.4 °F 102.5 °F 75.2 °F 59% 29.89 in 6.2 mi ENE 9.2 mph - N/A   Partly Cloudy
11:30 AM 91.4 °F 100.1 °F 73.4 °F 55% 29.86 in 6.2 mi NE 9.2 mph - N/A   Scattered Clouds
12:00 PM 93.2 °F 102.4 °F 73.4 °F 52% 29.83 in 6.2 mi East 8.1 mph - N/A   Scattered Clouds
12:30 PM 93.2 °F 100.5 °F 71.6 °F 49% 29.83 in 6.2 mi ENE 6.9 mph - N/A   Scattered Clouds
1:00 PM 96 °F - 81 °F 54% 29.80 in 4 mi East 5.8 mph - -   Haze
1:00 PM 93.2 °F 102.4 °F 73.4 °F 52% 29.80 in 6.2 mi NE 8.1 mph - N/A   Scattered Clouds
1:30 PM 93.2 °F 100.5 °F 71.6 °F 49% 29.80 in 6.2 mi NE 5.8 mph - N/A   Scattered Clouds
2:00 PM 93.2 °F 102.4 °F 73.4 °F 52% 29.77 in 6.2 mi East 9.2 mph - N/A   Scattered Clouds
2:30 PM 95.0 °F 103.2 °F 71.6 °F 47% 29.77 in 6.2 mi ENE 9.2 mph - N/A   Scattered Clouds
3:00 PM 95.0 °F 103.2 °F 71.6 °F 47% 29.77 in 6.2 mi East 9.2 mph - N/A   Partly Cloudy
3:30 PM 96.8 °F 105.1 °F 71.6 °F 44% 29.74 in 6.2 mi East 8.1 mph - N/A   Partly Cloudy
4:00 PM 96 °F - 80 °F 53% 29.74 in 4 mi Calm Calm - -   Haze
4:00 PM 95.0 °F 103.2 °F 71.6 °F 47% 29.74 in 6.2 mi ENE 9.2 mph - N/A   Partly Cloudy
5:30 PM 93.2 °F 100.5 °F 71.6 °F 49% 29.77 in 6.2 mi NE 9.2 mph - N/A   Partly Cloudy
6:00 PM 91.4 °F 98.4 °F 71.6 °F 52% 29.77 in 6.2 mi NNE 8.1 mph - N/A   Partly Cloudy
6:30 PM 89.6 °F 98.2 °F 73.4 °F 59% 29.77 in 6.2 mi NNE 6.9 mph - N/A   Partly Cloudy
7:00 PM 88 °F - 81 °F 74% 29.79 in 2 mi ENE 3.5 mph - -   Mist
7:00 PM 89.6 °F 99.8 °F 75.2 °F 62% 29.77 in 6.2 mi NE 6.9 mph - N/A   Partly Cloudy
7:30 PM 89.6 °F 99.8 °F 75.2 °F 62% 29.80 in 6.2 mi NE 5.8 mph - N/A   Partly Cloudy
8:30 PM 87.8 °F 99.7 °F 77.0 °F 70% 29.83 in 6.2 mi NE 4.6 mph - N/A   Partly Cloudy
9:00 PM 87.8 °F 99.7 °F 77.0 °F 70% 29.83 in 6.2 mi NNE 3.5 mph - N/A   Partly Cloudy
9:30 PM 87.8 °F 99.7 °F 77.0 °F 70% 29.83 in 6.2 mi ENE 3.5 mph - N/A   Partly Cloudy
10:00 PM 86 °F - 81 °F 81% 29.84 in 2 mi Calm Calm - -   Mist
10:00 PM 87.8 °F 99.7 °F 77.0 °F 70% 29.83 in 6.2 mi ENE 3.5 mph - N/A   Partly Cloudy
10:30 PM 87.8 °F 97.6 °F 75.2 °F 66% 29.83 in 6.2 mi East 6.9 mph - N/A   Partly Cloudy
11:30 PM 86.0 °F 96.9 °F 77.0 °F 74% 29.83 in 6.2 mi NE 5.8 mph - N/A   Partly Cloudy